| time (UTC) | temp F | wind direction | speed knots | gust knots | rain 1hr in | rain 24hr in | rain mn in | humidity % | barometer mb |
| 20260901150038 | 87 | 11 | 0.0 | 0.9 | 0.00 | 0.00 | 0.00 | 59 | 1015.5 |
| 20260901144535 | 85 | 11 | 0.0 | 0.9 | 0.00 | 0.00 | 0.00 | 62 | 1015.6 |
| 20260901143039 | 81 | 11 | 0.0 | 0.9 | 0.00 | 0.00 | 0.00 | 77 | 1015.6 |
| 20260901141527 | 80 | 11 | 0.0 | 0.9 | 0.00 | 0.00 | 0.00 | 82 | 1015.6 |
| 20260901140040 | 79 | 11 | 0.0 | 0.9 | 0.00 | 0.00 | 0.00 | 86 | 1015.5 |
| 20260901134524 | 77 | 11 | 0.0 | 0.0 | 0.00 | 0.00 | 0.00 | 89 | 1015.6 |
| 20260901133020 | 76 | 11 | 0.0 | 2.6 | 0.00 | 0.00 | 0.00 | 90 | 1015.8 |
| 20260901131518 | 76 | 11 | 0.0 | 0.9 | 0.00 | 0.00 | 0.00 | 91 | 1015.8 |
| 20260901130034 | 76 | 11 | 0.0 | 0.0 | 0.00 | 0.00 | 0.00 | 91 | 1016.0 |
| 20260901124512 | 76 | 11 | 0.0 | 0.0 | 0.00 | 0.00 | 0.00 | 92 | 1016.0 |
| 20260901123019 | 75 | 11 | 0.0 | 0.0 | 0.00 | 0.00 | 0.00 | 92 | 1016.0 |
| 20260901121511 | 75 | 11 | 0.0 | 0.0 | 0.00 | 0.00 | 0.00 | 91 | 1015.9 |
| 20260901120011 | 74 | 11 | 0.0 | 0.0 | 0.00 | 0.00 | 0.00 | 92 | 1015.7 |
| 20260901114507 | 73 | 11 | 0.0 | 0.0 | 0.00 | 0.00 | 0.00 | 91 | 1015.7 |
| 20260901113005 | 73 | 11 | 0.0 | 0.0 | 0.00 | 0.00 | 0.00 | 91 | 1015.4 |
| 20260901111503 | 72 | 11 | 0.0 | 0.0 | 0.00 | 0.00 | 0.00 | 90 | 1015.4 |
| 20260901104558 | 72 | 11 | 0.0 | 0.0 | 0.00 | 0.00 | 0.00 | 90 | 1015.4 |
| 20260901103057 | 72 | 11 | 0.0 | 0.0 | 0.00 | 0.00 | 0.00 | 90 | 1015.4 |
| 20260901101606 | 73 | 11 | 0.0 | 0.0 | 0.00 | 0.00 | 0.00 | 89 | 1015.3 |
| 20260901100057 | 73 | 11 | 0.0 | 0.0 | 0.00 | 0.00 | 0.00 | 89 | 1015.1 |
| 20260901094554 | 73 | 11 | 0.0 | 0.0 | 0.00 | 0.00 | 0.00 | 89 | 1015.2 |
| 20260901093057 | 73 | 11 | 0.0 | 0.0 | 0.00 | 0.00 | 0.00 | 89 | 1015.2 |
| 20260901091556 | 73 | 11 | 0.0 | 0.0 | 0.00 | 0.00 | 0.00 | 89 | 1015.2 |
| 20260901090053 | 73 | 11 | 0.0 | 0.0 | 0.00 | 0.00 | 0.00 | 89 | 1015.2 |
| 20260901084552 | 73 | 11 | 0.0 | 0.0 | 0.00 | 0.00 | 0.00 | 89 | 1015.3 |
| 20260901083051 | 73 | 11 | 0.0 | 0.0 | 0.00 | 0.00 | 0.00 | 88 | 1015.2 |
| 20260901081558 | 73 | 11 | 0.0 | 0.0 | 0.00 | 0.00 | 0.00 | 88 | 1015.2 |
| 20260901080048 | 74 | 11 | 0.0 | 0.0 | 0.00 | 0.00 | 0.00 | 88 | 1015.3 |
| 20260901074546 | 74 | 11 | 0.0 | 0.0 | 0.00 | 0.00 | 0.00 | 88 | 1015.5 |
| 20260901073045 | 74 | 11 | 0.0 | 0.0 | 0.00 | 0.00 | 0.00 | 87 | 1015.6 |
| 20260901071544 | 74 | 11 | 0.0 | 0.0 | 0.00 | 0.00 | 0.00 | 87 | 1015.5 |
| 20260901070043 | 74 | 11 | 0.0 | 0.0 | 0.00 | 0.00 | 0.00 | 87 | 1015.7 |
| 20260901064543 | 74 | 11 | 0.0 | 0.0 | 0.00 | 0.00 | 0.00 | 87 | 1015.7 |
| 20260901063040 | 75 | 11 | 0.0 | 0.0 | 0.00 | 0.00 | 0.00 | 86 | 1015.7 |
| 20260901061539 | 75 | 11 | 0.0 | 0.0 | 0.00 | 0.00 | 0.00 | 86 | 1015.9 |
| 20260901060037 | 75 | 11 | 0.0 | 0.0 | 0.00 | 0.00 | 0.00 | 86 | 1016.0 |
| 20260901054538 | 75 | 11 | 0.0 | 0.0 | 0.00 | 0.00 | 0.00 | 85 | 1016.2 |
| 20260901053052 | 75 | 11 | 0.0 | 0.0 | 0.00 | 0.00 | 0.00 | 85 | 1016.2 |
| 20260901051538 | 76 | 11 | 0.0 | 0.0 | 0.00 | 0.00 | 0.00 | 84 | 1016.3 |
| 20260901050031 | 76 | 11 | 0.0 | 0.0 | 0.00 | 0.00 | 0.00 | 83 | 1016.5 |
| 20260901044529 | 76 | 11 | 0.0 | 0.0 | 0.00 | 0.00 | 0.00 | 82 | 1016.8 |
| 20260901043029 | 76 | 11 | 0.0 | 0.0 | 0.00 | 0.00 | 0.00 | 82 | 1016.7 |
| 20260901041528 | 76 | 11 | 0.0 | 0.0 | 0.00 | 0.00 | 0.00 | 81 | 1016.8 |
| 20260901040028 | 76 | 11 | 0.0 | 0.0 | 0.00 | 0.00 | 0.00 | 80 | 1016.7 |
| 20260901034530 | 77 | 11 | 0.0 | 0.0 | 0.00 | 0.00 | 0.00 | 80 | 1016.7 |
| 20260901033029 | 77 | 11 | 0.0 | 0.0 | 0.00 | 0.00 | 0.00 | 79 | 1016.5 |
| 20260901031528 | 77 | 11 | 0.0 | 0.0 | 0.00 | 0.00 | 0.00 | 79 | 1016.5 |
| 20260901030028 | 78 | 11 | 0.0 | 0.0 | 0.00 | 0.00 | 0.00 | 77 | 1016.5 |
| 20260901024526 | 78 | 11 | 0.0 | 0.0 | 0.00 | 0.00 | 0.00 | 76 | 1016.6 |
| 20260901023036 | 79 | 11 | 0.0 | 0.0 | 0.00 | 0.00 | 0.00 | 76 | 1016.5 |
| 20260901021526 | 79 | 11 | 0.0 | 0.0 | 0.00 | 0.00 | 0.00 | 75 | 1016.5 |
| 20260901020024 | 79 | 11 | 0.0 | 0.0 | 0.00 | 0.00 | 0.00 | 74 | 1016.5 |
| 20260901014523 | 80 | 11 | 0.0 | 0.0 | 0.00 | 0.00 | 0.00 | 74 | 1016.5 |
| 20260901013023 | 80 | 11 | 0.0 | 0.0 | 0.00 | 0.00 | 0.00 | 73 | 1016.3 |
| 20260901011526 | 81 | 11 | 0.0 | 0.0 | 0.00 | 0.00 | 0.00 | 72 | 1016.2 |
| 20260901010022 | 81 | 11 | 0.0 | 0.0 | 0.00 | 0.00 | 0.00 | 71 | 1016.3 |
| 20260901004522 | 81 | 11 | 0.0 | 0.0 | 0.00 | 0.00 | 0.00 | 70 | 1016.1 |
| 20260901003020 | 82 | 11 | 0.0 | 0.0 | 0.00 | 0.00 | 0.00 | 70 | 1016.1 |
| 20260901001520 | 82 | 11 | 0.0 | 0.0 | 0.00 | 0.00 | 0.00 | 70 | 1016.0 |
| 20260901000020 | 82 | 11 | 0.0 | 0.0 | 0.00 | 0.00 | 0.00 | 70 | 1016.0 |
| 20260831234519 | 83 | 11 | 0.0 | 0.0 | 0.00 | 0.01 | 0.00 | 70 | 1015.9 |
| 20260831233018 | 84 | 11 | 0.0 | 0.0 | 0.00 | 0.01 | 0.00 | 69 | 1016.1 |
| 20260831231518 | 84 | 11 | 0.0 | 0.0 | 0.00 | 0.01 | 0.00 | 68 | 1016.1 |
| 20260831230018 | 84 | 11 | 0.0 | 0.0 | 0.00 | 0.01 | 0.00 | 66 | 1016.2 |
| 20260831224517 | 85 | 11 | 0.0 | 0.0 | 0.00 | 0.01 | 0.00 | 64 | 1016.3 |
| 20260831223018 | 85 | 12 | 0.0 | 1.7 | 0.00 | 0.01 | 0.00 | 63 | 1016.3 |
| 20260831221515 | 86 | 12 | 0.0 | 0.0 | 0.00 | 0.01 | 0.00 | 62 | 1016.4 |
| 20260831220016 | 86 | 12 | 0.0 | 1.7 | 0.00 | 0.01 | 0.00 | 62 | 1016.4 |
| 20260831214515 | 86 | 12 | 0.0 | 0.0 | 0.00 | 0.01 | 0.00 | 61 | 1016.3 |
| 20260831213014 | 86 | 12 | 0.0 | 1.7 | 0.00 | 0.01 | 0.00 | 61 | 1016.2 |
| 20260831211515 | 86 | 12 | 0.0 | 0.0 | 0.00 | 0.01 | 0.00 | 61 | 1016.1 |
| 20260831210013 | 86 | 12 | 0.0 | 0.9 | 0.00 | 0.01 | 0.00 | 61 | 1016.1 |
| 20260831204513 | 86 | 12 | 0.0 | 0.9 | 0.00 | 0.01 | 0.00 | 65 | 1016.1 |
| 20260831203013 | 86 | 12 | 0.0 | 0.9 | 0.00 | 0.01 | 0.00 | 63 | 1016.2 |
| 20260831201510 | 87 | 12 | 0.0 | 2.6 | 0.00 | 0.01 | 0.00 | 61 | 1016.3 |
| 20260831200015 | 87 | 11 | 0.0 | 1.7 | 0.00 | 0.01 | 0.00 | 60 | 1016.4 |
| 20260831194508 | 87 | 13 | 0.0 | 2.6 | 0.00 | 0.01 | 0.00 | 60 | 1016.3 |
| 20260831193009 | 87 | 13 | 0.0 | 0.9 | 0.00 | 0.01 | 0.00 | 58 | 1016.5 |
| 20260831191507 | 86 | 13 | 0.0 | 0.9 | 0.00 | 0.01 | 0.00 | 62 | 1016.7 |
| 20260831190007 | 87 | 13 | 0.0 | 0.9 | 0.00 | 0.01 | 0.00 | 57 | 1016.8 |
| 20260831184506 | 86 | 13 | 0.0 | 0.0 | 0.00 | 0.01 | 0.00 | 59 | 1016.7 |
| 20260831183005 | 88 | 13 | 0.0 | 0.9 | 0.00 | 0.01 | 0.00 | 57 | 1016.7 |
| 20260831181505 | 87 | 10 | 0.0 | 1.7 | 0.00 | 0.01 | 0.00 | 57 | 1016.8 |
| 20260831180006 | 88 | 9 | 0.0 | 0.9 | 0.00 | 0.01 | 0.00 | 59 | 1016.9 |
| 20260831174513 | 88 | 5 | 0.0 | 0.9 | 0.00 | 0.01 | 0.00 | 58 | 1017.0 |
| 20260831173002 | 87 | 5 | 0.0 | 1.7 | 0.00 | 0.01 | 0.00 | 57 | 1017.0 |
| 20260831171600 | 87 | 5 | 0.0 | 3.5 | 0.00 | 0.01 | 0.00 | 57 | 1017.3 |
| 20260831164613 | 86 | 5 | 0.0 | 1.7 | 0.00 | 0.01 | 0.00 | 62 | 1017.7 |
| 20260831163055 | 86 | 5 | 0.0 | 1.7 | 0.00 | 0.01 | 0.00 | 62 | 1017.8 |
| 20260831161652 | 86 | 5 | 0.0 | 1.7 | 0.00 | 0.01 | 0.00 | 63 | 1017.8 |
| 20260831160051 | 85 | 106 | 0.0 | 3.5 | 0.00 | 0.01 | 0.00 | 64 | 1017.8 |
| 20260831154552 | 85 | 29 | 0.0 | 1.7 | 0.00 | 0.01 | 0.00 | 65 | 1017.7 |
| 20260831153047 | 84 | 32 | 0.9 | 3.5 | 0.00 | 0.01 | 0.00 | 67 | 1017.8 |
| 20260831151550 | 81 | 24 | 0.0 | 2.6 | 0.00 | 0.01 | 0.00 | 72 | 1017.8 |